| time (UTC) | temp C | wind direction | speed KPH | gust KPH | rain 1hr cm | rain 24hr cm | rain mn cm | humidity % | barometer mb |
| 20260506014338 | 23 | 227 | 0.0 | 1.6 | 0.00 | 0.00 | 0.00 | 71 | 1007.2 |
| 20260506014207 | 23 | 76 | 0.0 | 3.2 | 0.00 | 0.00 | 0.00 | 71 | 1007.8 |
| 20260506013835 | 23 | 307 | 0.0 | 0.0 | 0.00 | 0.00 | 0.00 | 71 | 1007.8 |
| 20260506013333 | 23 | 70 | 0.0 | 0.0 | 0.00 | 0.00 | 0.00 | 70 | 1007.2 |
| 20260506013210 | 23 | 338 | 0.0 | 1.6 | 0.00 | 0.00 | 0.00 | 70 | 1007.6 |
| 20260506012829 | 23 | 359 | 0.0 | 1.6 | 0.00 | 0.00 | 0.00 | 70 | 1007.0 |
| 20260506012326 | 23 | 0 | 0.0 | 0.0 | 0.00 | 0.00 | 0.00 | 70 | 1007.2 |
| 20260506012133 | 23 | 25 | 1.6 | 4.8 | 0.00 | 0.00 | 0.00 | 69 | 1007.5 |
| 20260506011823 | 23 | 351 | 1.6 | 1.6 | 0.00 | 0.00 | 0.00 | 69 | 1007.2 |
| 20260506011320 | 23 | 98 | 1.6 | 1.6 | 0.00 | 0.00 | 0.00 | 69 | 1007.1 |
| 20260506011159 | 23 | 5 | 0.0 | 1.6 | 0.00 | 0.00 | 0.00 | 69 | 1007.4 |
| 20260506010817 | 23 | 341 | 0.0 | 0.0 | 0.00 | 0.00 | 0.00 | 69 | 1007.0 |
| 20260506010315 | 23 | 354 | 1.6 | 1.6 | 0.00 | 0.00 | 0.00 | 68 | 1007.1 |
| 20260506010121 | 23 | 330 | 0.0 | 1.6 | 0.00 | 0.00 | 0.00 | 68 | 1006.8 |
| 20260506005812 | 23 | 342 | 0.0 | 1.6 | 0.00 | 0.00 | 0.00 | 68 | 1006.5 |
| 20260506005310 | 23 | 340 | 1.6 | 3.2 | 0.00 | 0.00 | 0.00 | 68 | 1007.0 |
| 20260506004805 | 23 | 312 | 0.0 | 1.6 | 0.00 | 0.00 | 0.00 | 67 | 1006.8 |
| 20260506004303 | 23 | 332 | 0.0 | 1.6 | 0.00 | 0.00 | 0.00 | 67 | 1006.8 |
| 20260506004212 | 23 | 352 | 1.6 | 3.2 | 0.00 | 0.00 | 0.00 | 66 | 1007.1 |
| 20260506003759 | 23 | 349 | 1.6 | 1.6 | 0.00 | 0.00 | 0.00 | 66 | 1006.9 |
| 20260506003255 | 24 | 335 | 1.6 | 1.6 | 0.00 | 0.00 | 0.00 | 67 | 1006.8 |
| 20260506003237 | 24 | 26 | 1.6 | 4.8 | 0.00 | 0.00 | 0.00 | 67 | 1007.0 |
| 20260506002751 | 25 | 317 | 0.0 | 1.6 | 0.00 | 0.00 | 0.00 | 67 | 1006.7 |
| 20260506002247 | 25 | 44 | 0.0 | 1.6 | 0.00 | 0.00 | 0.00 | 67 | 1006.5 |
| 20260506002200 | 25 | 3 | 0.0 | 3.2 | 0.00 | 0.00 | 0.00 | 67 | 1006.9 |
| 20260506001743 | 25 | 79 | 0.0 | 1.6 | 0.00 | 0.00 | 0.00 | 67 | 1006.6 |
| 20260506001241 | 25 | 327 | 0.0 | 0.0 | 0.00 | 0.00 | 0.00 | 66 | 1006.6 |
| 20260506001122 | 26 | 354 | 0.0 | 1.6 | 0.00 | 0.00 | 0.00 | 64 | 1006.7 |
| 20260506000738 | 26 | 116 | 0.0 | 0.0 | 0.00 | 0.00 | 0.00 | 64 | 1006.3 |
| 20260506000235 | 26 | 323 | 0.0 | 1.6 | 0.00 | 0.00 | 0.00 | 64 | 1006.0 |
| 20260506000147 | 26 | 264 | 1.6 | 1.6 | 0.00 | 0.00 | 0.00 | 63 | 1006.4 |
| 20260505235732 | 26 | 253 | 1.6 | 1.6 | 0.00 | 0.00 | 0.00 | 63 | 1006.0 |
| 20260505235230 | 26 | 332 | 0.0 | 1.6 | 0.00 | 0.00 | 0.00 | 63 | 1005.9 |
| 20260505235212 | 26 | 359 | 1.6 | 3.2 | 0.00 | 0.00 | 0.00 | 63 | 1006.3 |
| 20260505234727 | 26 | 51 | 1.6 | 1.6 | 0.00 | 0.00 | 0.00 | 63 | 1006.1 |
| 20260505234258 | 27 | 330 | 1.6 | 3.2 | 0.00 | 0.00 | 0.00 | 61 | 1006.2 |
| 20260505234224 | 27 | 284 | 1.6 | 1.6 | 0.00 | 0.00 | 0.00 | 62 | 1006.2 |
| 20260505233720 | 27 | 260 | 1.6 | 3.2 | 0.00 | 0.00 | 0.00 | 61 | 1005.8 |
| 20260505233219 | 27 | 16 | 1.6 | 3.2 | 0.00 | 0.00 | 0.00 | 60 | 1005.9 |
| 20260505233201 | 28 | 323 | 1.6 | 3.2 | 0.00 | 0.00 | 0.00 | 60 | 1006.2 |
| 20260505232715 | 28 | 173 | 1.6 | 1.6 | 0.00 | 0.00 | 0.00 | 59 | 1005.8 |
| 20260505232306 | 29 | 251 | 1.6 | 3.2 | 0.00 | 0.00 | 0.00 | 56 | 1005.9 |
| 20260505232213 | 28 | 32 | 1.6 | 1.6 | 0.00 | 0.00 | 0.00 | 58 | 1005.7 |
| 20260505231709 | 29 | 197 | 0.0 | 1.6 | 0.00 | 0.00 | 0.00 | 55 | 1005.6 |
| 20260505231208 | 30 | 24 | 0.0 | 0.0 | 0.00 | 0.00 | 0.00 | 51 | 1005.5 |
| 20260505231149 | 30 | 319 | 1.6 | 3.2 | 0.00 | 0.00 | 0.00 | 51 | 1005.6 |
| 20260505230706 | 30 | 5 | 1.6 | 1.6 | 0.00 | 0.00 | 0.00 | 51 | 1005.3 |
| 20260505230202 | 30 | 173 | 1.6 | 1.6 | 0.00 | 0.00 | 0.00 | 50 | 1005.1 |
| 20260505230111 | 30 | 321 | 1.6 | 1.6 | 0.00 | 0.00 | 0.00 | 49 | 1005.3 |
| 20260505225659 | 30 | 282 | 1.6 | 1.6 | 0.00 | 0.00 | 0.00 | 49 | 1005.0 |
| 20260505225240 | 30 | 269 | 1.6 | 3.2 | 0.00 | 0.00 | 0.00 | 48 | 1005.4 |
| 20260505225155 | 30 | 7 | 1.6 | 1.6 | 0.00 | 0.00 | 0.00 | 48 | 1005.2 |
| 20260505224651 | 31 | 57 | 1.6 | 3.2 | 0.00 | 0.00 | 0.00 | 47 | 1005.2 |
| 20260505224222 | 31 | 228 | 3.2 | 4.8 | 0.00 | 0.00 | 0.00 | 47 | 1005.2 |
| 20260505224149 | 31 | 255 | 3.2 | 3.2 | 0.00 | 0.00 | 0.00 | 47 | 1004.9 |
| 20260505223647 | 31 | 262 | 1.6 | 1.6 | 0.00 | 0.00 | 0.00 | 47 | 1005.1 |
| 20260505223228 | 32 | 284 | 0.0 | 3.2 | 0.00 | 0.00 | 0.00 | 53 | 1004.8 |
| 20260505223142 | 32 | 333 | 0.0 | 1.6 | 0.00 | 0.00 | 0.00 | 53 | 1004.6 |
| 20260505222638 | 32 | 311 | 0.0 | 0.0 | 0.00 | 0.00 | 0.00 | 53 | 1004.4 |
| 20260505222150 | 32 | 330 | 1.6 | 3.2 | 0.00 | 0.00 | 0.00 | 53 | 1004.7 |
| 20260505222135 | 32 | 298 | 1.6 | 3.2 | 0.00 | 0.00 | 0.00 | 53 | 1004.5 |
| 20260505221632 | 32 | 335 | 1.6 | 3.2 | 0.00 | 0.00 | 0.00 | 53 | 1004.4 |
| 20260505221216 | 32 | 325 | 0.0 | 3.2 | 0.00 | 0.00 | 0.00 | 53 | 1004.7 |
| 20260505221129 | 32 | 359 | 1.6 | 1.6 | 0.00 | 0.00 | 0.00 | 53 | 1004.3 |
| 20260505220627 | 32 | 351 | 0.0 | 1.6 | 0.00 | 0.00 | 0.00 | 53 | 1004.5 |
| 20260505220138 | 32 | 350 | 0.0 | 3.2 | 0.00 | 0.00 | 0.00 | 53 | 1004.9 |
| 20260505220124 | 32 | 354 | 0.0 | 1.6 | 0.00 | 0.00 | 0.00 | 53 | 1004.5 |
| 20260505215621 | 32 | 47 | 0.0 | 1.6 | 0.00 | 0.00 | 0.00 | 53 | 1004.8 |
| 20260505215204 | 32 | 286 | 1.6 | 1.6 | 0.00 | 0.00 | 0.00 | 53 | 1004.9 |
| 20260505215119 | 32 | 296 | 1.6 | 1.6 | 0.00 | 0.00 | 0.00 | 52 | 1004.6 |
| 20260505214617 | 32 | 232 | 1.6 | 3.2 | 0.00 | 0.00 | 0.00 | 53 | 1004.8 |
| 20260505214230 | 32 | 293 | 3.2 | 6.4 | 0.00 | 0.00 | 0.00 | 53 | 1004.9 |
| 20260505214114 | 32 | 275 | 4.8 | 6.4 | 0.00 | 0.00 | 0.00 | 52 | 1004.6 |
| 20260505213611 | 32 | 292 | 1.6 | 3.2 | 0.00 | 0.00 | 0.00 | 53 | 1004.7 |
| 20260505213152 | 31 | 310 | 1.6 | 4.8 | 0.00 | 0.00 | 0.00 | 54 | 1005.1 |
| 20260505213108 | 32 | 302 | 3.2 | 4.8 | 0.00 | 0.00 | 0.00 | 54 | 1004.7 |
| 20260505212603 | 31 | 295 | 1.6 | 1.6 | 0.00 | 0.00 | 0.00 | 55 | 1005.0 |
| 20260505212218 | 31 | 323 | 1.6 | 3.2 | 0.00 | 0.00 | 0.00 | 54 | 1005.2 |
| 20260505212102 | 31 | 315 | 1.6 | 3.2 | 0.00 | 0.00 | 0.00 | 55 | 1004.7 |
| 20260505211558 | 32 | 293 | 3.2 | 4.8 | 0.00 | 0.00 | 0.00 | 54 | 1004.9 |
| 20260505211140 | 31 | 245 | 3.2 | 6.4 | 0.00 | 0.00 | 0.00 | 54 | 1005.3 |
| 20260505211056 | 31 | 275 | 3.2 | 4.8 | 0.00 | 0.00 | 0.00 | 54 | 1005.0 |
| 20260505210552 | 32 | 337 | 1.6 | 1.6 | 0.00 | 0.00 | 0.00 | 54 | 1005.2 |
| 20260505210205 | 32 | 282 | 1.6 | 4.8 | 0.00 | 0.00 | 0.00 | 56 | 1005.4 |
| 20260505210049 | 32 | 246 | 1.6 | 3.2 | 0.00 | 0.00 | 0.00 | 54 | 1005.0 |
| 20260505205547 | 31 | 317 | 0.0 | 0.0 | 0.00 | 0.00 | 0.00 | 58 | 1005.0 |
| 20260505205202 | 31 | 288 | 3.2 | 6.4 | 0.00 | 0.00 | 0.00 | 58 | 1005.4 |
| 20260505205044 | 31 | 271 | 4.8 | 6.4 | 0.00 | 0.00 | 0.00 | 58 | 1005.3 |
| 20260505204541 | 31 | 297 | 0.0 | 1.6 | 0.00 | 0.00 | 0.00 | 59 | 1005.4 |
| 20260505204250 | 31 | 287 | 1.6 | 3.2 | 0.00 | 0.00 | 0.00 | 58 | 1005.6 |
| 20260505204039 | 31 | 272 | 1.6 | 3.2 | 0.00 | 0.00 | 0.00 | 58 | 1005.1 |
| 20260505203535 | 31 | 308 | 3.2 | 3.2 | 0.00 | 0.00 | 0.00 | 59 | 1005.6 |
| 20260505203213 | 31 | 312 | 1.6 | 4.8 | 0.00 | 0.00 | 0.00 | 59 | 1005.8 |
| 20260505203032 | 31 | 283 | 0.0 | 1.6 | 0.00 | 0.00 | 0.00 | 58 | 1005.5 |
| 20260505202528 | 31 | 309 | 0.0 | 0.0 | 0.00 | 0.00 | 0.00 | 60 | 1005.6 |
| 20260505202134 | 31 | 257 | 1.6 | 3.2 | 0.00 | 0.00 | 0.00 | 59 | 1005.8 |
| 20260505202024 | 31 | 331 | 1.6 | 1.6 | 0.00 | 0.00 | 0.00 | 59 | 1005.4 |
| 20260505201522 | 31 | 317 | 3.2 | 3.2 | 0.00 | 0.00 | 0.00 | 59 | 1005.5 |
| 20260505201200 | 31 | 351 | 1.6 | 4.8 | 0.00 | 0.00 | 0.00 | 59 | 1005.7 |
| 20260505201019 | 31 | 324 | 0.0 | 1.6 | 0.00 | 0.00 | 0.00 | 58 | 1005.4 |
| 20260505200517 | 31 | 338 | 0.0 | 0.0 | 0.00 | 0.00 | 0.00 | 59 | 1005.4 |
| 20260505200122 | 31 | 250 | 1.6 | 4.8 | 0.00 | 0.00 | 0.00 | 59 | 1006.0 |
| 20260505200014 | 31 | 115 | 4.8 | 4.8 | 0.00 | 0.00 | 0.00 | 59 | 1005.5 |
| 20260505195509 | 31 | 267 | 1.6 | 1.6 | 0.00 | 0.00 | 0.00 | 60 | 1005.7 |
| 20260505195251 | 31 | 208 | 3.2 | 4.8 | 0.00 | 0.00 | 0.00 | 59 | 1005.9 |
| 20260505195007 | 31 | 188 | 3.2 | 3.2 | 0.00 | 0.00 | 0.00 | 57 | 1005.5 |
| 20260505194504 | 31 | 328 | 1.6 | 1.6 | 0.00 | 0.00 | 0.00 | 60 | 1005.8 |
| 20260505194213 | 31 | 297 | 1.6 | 4.8 | 0.00 | 0.00 | 0.00 | 58 | 1006.2 |
| 20260505194004 | 31 | 223 | 1.6 | 3.2 | 0.00 | 0.00 | 0.00 | 58 | 1005.8 |
| 20260505193502 | 31 | 309 | 1.6 | 3.2 | 0.00 | 0.00 | 0.00 | 60 | 1005.6 |
| 20260505193319 | 31 | 41 | 1.6 | 4.8 | 0.00 | 0.00 | 0.00 | 60 | 1006.0 |
| 20260505192959 | 31 | 107 | 3.2 | 4.8 | 0.00 | 0.00 | 0.00 | 60 | 1005.6 |
| 20260505192458 | 30 | 261 | 1.6 | 3.2 | 0.00 | 0.00 | 0.00 | 61 | 1005.6 |
| 20260505192202 | 30 | 258 | 3.2 | 4.8 | 0.00 | 0.00 | 0.00 | 62 | 1006.0 |
| 20260505191955 | 30 | 321 | 3.2 | 4.8 | 0.00 | 0.00 | 0.00 | 62 | 1005.8 |
| 20260505191453 | 30 | 63 | 3.2 | 6.4 | 0.00 | 0.00 | 0.00 | 60 | 1005.6 |
| 20260505191123 | 30 | 258 | 3.2 | 6.4 | 0.00 | 0.00 | 0.00 | 63 | 1006.0 |
| 20260505190950 | 30 | 315 | 1.6 | 3.2 | 0.00 | 0.00 | 0.00 | 62 | 1005.6 |
| 20260505190445 | 29 | 172 | 0.0 | 1.6 | 0.00 | 0.00 | 0.00 | 64 | 1005.8 |
| 20260505190149 | 30 | 320 | 1.6 | 4.8 | 0.00 | 0.00 | 0.00 | 63 | 1006.0 |
| 20260505185941 | 30 | 300 | 1.6 | 1.6 | 0.00 | 0.00 | 0.00 | 64 | 1005.8 |
| 20260505185438 | 30 | 28 | 1.6 | 1.6 | 0.00 | 0.00 | 0.00 | 64 | 1005.6 |
| 20260505185214 | 29 | 174 | 0.0 | 1.6 | 0.00 | 0.00 | 0.00 | 64 | 1006.2 |
| 20260505184934 | 29 | 342 | 0.0 | 0.0 | 0.00 | 0.00 | 0.00 | 64 | 1005.8 |
| 20260505184431 | 29 | 52 | 1.6 | 3.2 | 0.00 | 0.00 | 0.00 | 64 | 1005.8 |
| 20260505184300 | 29 | 324 | 1.6 | 4.8 | 0.00 | 0.00 | 0.00 | 65 | 1006.2 |
| 20260505183928 | 29 | 341 | 1.6 | 1.6 | 0.00 | 0.00 | 0.00 | 65 | 1006.1 |
| 20260505183424 | 29 | 214 | 3.2 | 4.8 | 0.00 | 0.00 | 0.00 | 66 | 1006.0 |
| 20260505183202 | 28 | 150 | 1.6 | 6.4 | 0.00 | 0.00 | 0.00 | 67 | 1006.3 |
| 20260505182922 | 28 | 337 | 0.0 | 1.6 | 0.00 | 0.00 | 0.00 | 66 | 1005.9 |
| 20260505182419 | 28 | 282 | 1.6 | 3.2 | 0.00 | 0.00 | 0.00 | 67 | 1006.0 |
| 20260505182228 | 28 | 272 | 3.2 | 4.8 | 0.00 | 0.00 | 0.00 | 67 | 1006.2 |
| 20260505181915 | 28 | 278 | 1.6 | 1.6 | 0.00 | 0.00 | 0.00 | 67 | 1005.9 |
| 20260505181412 | 28 | 340 | 0.0 | 1.6 | 0.00 | 0.00 | 0.00 | 67 | 1006.0 |
| 20260505181150 | 28 | 288 | 1.6 | 3.2 | 0.00 | 0.00 | 0.00 | 66 | 1006.2 |
| 20260505180909 | 28 | 320 | 1.6 | 1.6 | 0.00 | 0.00 | 0.00 | 66 | 1006.1 |
| 20260505180405 | 28 | 238 | 4.8 | 9.7 | 0.00 | 0.00 | 0.00 | 66 | 1006.0 |
| 20260505180112 | 28 | 239 | 4.8 | 6.4 | 0.00 | 0.00 | 0.00 | 65 | 1006.2 |
| 20260505175902 | 28 | 347 | 1.6 | 3.2 | 0.00 | 0.00 | 0.00 | 65 | 1005.9 |
| 20260505175358 | 28 | 326 | 1.6 | 3.2 | 0.00 | 0.00 | 0.00 | 66 | 1005.9 |
| 20260505175240 | 28 | 7 | 3.2 | 4.8 | 0.00 | 0.00 | 0.00 | 67 | 1006.1 |
| 20260505174855 | 28 | 343 | 3.2 | 4.8 | 0.00 | 0.00 | 0.00 | 67 | 1005.7 |
| 20260505174353 | 28 | 313 | 1.6 | 3.2 | 0.00 | 0.00 | 0.00 | 68 | 1006.1 |
| 20260505174306 | 28 | 290 | 1.6 | 4.8 | 0.00 | 0.00 | 0.00 | 67 | 1006.3 |
| 20260505173848 | 28 | 223 | 3.2 | 3.2 | 0.00 | 0.00 | 0.00 | 67 | 1006.0 |
| 20260505173344 | 27 | 337 | 3.2 | 3.2 | 0.00 | 0.00 | 0.00 | 68 | 1005.9 |
| 20260505173249 | 27 | 141 | 3.2 | 6.4 | 0.00 | 0.00 | 0.00 | 69 | 1006.4 |
| 20260505172842 | 27 | 152 | 4.8 | 6.4 | 0.00 | 0.00 | 0.00 | 69 | 1006.0 |
| 20260505164528 | 27 | 161 | 3.2 | 4.8 | 0.00 | 0.00 | 0.00 | 69 | 1006.1 |
| 20260505164026 | 27 | 161 | 3.2 | 4.8 | 0.00 | 0.00 | 0.00 | 69 | 1006.1 |
| 20260505163525 | 27 | 17 | 3.2 | 3.2 | 0.00 | 0.00 | 0.00 | 69 | 1006.0 |
| 20260505163307 | 26 | 238 | 3.2 | 4.8 | 0.00 | 0.00 | 0.00 | 71 | 1006.4 |
| 20260505163021 | 26 | 99 | 3.2 | 4.8 | 0.00 | 0.00 | 0.00 | 72 | 1006.1 |
| 20260505162515 | 26 | 222 | 8.0 | 11.3 | 0.00 | 0.00 | 0.00 | 71 | 1006.0 |
| 20260505162147 | 26 | 255 | 3.2 | 4.8 | 0.00 | 0.00 | 0.00 | 70 | 1006.2 |
| 20260505162011 | 26 | 235 | 3.2 | 3.2 | 0.00 | 0.00 | 0.00 | 70 | 1005.9 |
| 20260505161508 | 26 | 340 | 1.6 | 1.6 | 0.00 | 0.00 | 0.00 | 71 | 1005.7 |
| 20260505161212 | 26 | 282 | 1.6 | 6.4 | 0.00 | 0.00 | 0.00 | 71 | 1006.1 |
| 20260505161006 | 26 | 305 | 0.0 | 1.6 | 0.00 | 0.00 | 0.00 | 71 | 1005.7 |
| 20260505160503 | 26 | 332 | 1.6 | 1.6 | 0.00 | 0.00 | 0.00 | 72 | 1005.8 |
| 20260505160117 | 26 | 262 | 3.2 | 6.4 | 0.00 | 0.00 | 0.00 | 72 | 1005.9 |
| 20260505153232 | 25 | 288 | 1.6 | 3.2 | 0.00 | 0.00 | 0.00 | 74 | 1005.7 |
| 20260505152940 | 26 | 271 | 1.6 | 3.2 | 0.00 | 0.00 | 0.00 | 73 | 1005.3 |
| 20260505152437 | 25 | 332 | 1.6 | 1.6 | 0.00 | 0.00 | 0.00 | 75 | 1005.5 |
| 20260505152155 | 25 | 257 | 3.2 | 4.8 | 0.00 | 0.00 | 0.00 | 75 | 1006.1 |
| 20260505151938 | 25 | 79 | 1.6 | 3.2 | 0.00 | 0.00 | 0.00 | 75 | 1005.7 |
| 20260505151433 | 25 | 291 | 1.6 | 3.2 | 0.00 | 0.00 | 0.00 | 75 | 1005.8 |
| 20260505151220 | 25 | 59 | 1.6 | 4.8 | 0.00 | 0.00 | 0.00 | 75 | 1006.1 |
| 20260505150931 | 25 | 122 | 3.2 | 4.8 | 0.00 | 0.00 | 0.00 | 75 | 1006.0 |
| 20260505150428 | 25 | 342 | 3.2 | 3.2 | 0.00 | 0.00 | 0.00 | 74 | 1005.9 |
| 20260505150142 | 25 | 36 | 3.2 | 4.8 | 0.00 | 0.00 | 0.00 | 74 | 1006.1 |
| 20260505140358 | 23 | 266 | 0.0 | 0.0 | 0.00 | 0.00 | 0.00 | 79 | 1005.7 |
| 20260505140209 | 23 | 248 | 1.6 | 6.4 | 0.00 | 0.00 | 0.00 | 80 | 1006.1 |
| 20260505130135 | 22 | 338 | 1.6 | 3.2 | 0.00 | 0.00 | 0.00 | 83 | 1005.7 |
| 20260505124811 | 22 | 348 | 0.0 | 1.6 | 0.00 | 0.00 | 0.00 | 83 | 1005.3 |
| 20260505124308 | 22 | 285 | 0.0 | 1.6 | 0.00 | 0.00 | 0.00 | 83 | 1005.4 |
| 20260505124225 | 22 | 145 | 1.6 | 3.2 | 0.00 | 0.00 | 0.00 | 83 | 1005.6 |
| 20260505123804 | 22 | 97 | 1.6 | 3.2 | 0.00 | 0.00 | 0.00 | 83 | 1005.4 |
| 20260505123301 | 22 | 322 | 1.6 | 1.6 | 0.00 | 0.00 | 0.00 | 83 | 1004.9 |
| 20260505123224 | 22 | 20 | 0.0 | 3.2 | 0.00 | 0.00 | 0.00 | 83 | 1005.2 |
| 20260505122757 | 22 | 338 | 1.6 | 1.6 | 0.00 | 0.00 | 0.00 | 83 | 1004.9 |
| 20260505122255 | 22 | 206 | 3.2 | 4.8 | 0.00 | 0.00 | 0.00 | 83 | 1004.7 |
| 20260505122220 | 22 | 177 | 1.6 | 6.4 | 0.00 | 0.00 | 0.00 | 82 | 1005.1 |
| 20260505121751 | 22 | 270 | 1.6 | 3.2 | 0.00 | 0.00 | 0.00 | 82 | 1005.0 |
| 20260505121248 | 22 | 34 | 1.6 | 3.2 | 0.00 | 0.00 | 0.00 | 82 | 1004.8 |
| 20260505121217 | 22 | 299 | 3.2 | 4.8 | 0.00 | 0.00 | 0.00 | 82 | 1005.2 |
| 20260505120744 | 22 | 301 | 1.6 | 1.6 | 0.00 | 0.00 | 0.00 | 82 | 1004.9 |
| 20260505120240 | 22 | 18 | 1.6 | 1.6 | 0.00 | 0.00 | 0.00 | 83 | 1004.8 |
| 20260505120156 | 22 | 344 | 1.6 | 4.8 | 0.00 | 0.00 | 0.00 | 83 | 1005.1 |
| 20260505115739 | 22 | 50 | 3.2 | 4.8 | 0.00 | 0.00 | 0.00 | 83 | 1004.8 |
| 20260505115237 | 22 | 172 | 6.4 | 11.3 | 0.00 | 0.00 | 0.00 | 83 | 1005.0 |
| 20260505115119 | 22 | 262 | 1.6 | 4.8 | 0.00 | 0.00 | 0.00 | 83 | 1005.1 |
| 20260505114734 | 22 | 316 | 0.0 | 0.0 | 0.00 | 0.00 | 0.00 | 83 | 1004.7 |
| 20260505114247 | 22 | 283 | 1.6 | 4.8 | 0.00 | 0.00 | 0.00 | 82 | 1005.0 |
| 20260505114230 | 22 | 338 | 0.0 | 1.6 | 0.00 | 0.00 | 0.00 | 82 | 1004.7 |
| 20260505113727 | 22 | 274 | 3.2 | 4.8 | 0.00 | 0.00 | 0.00 | 82 | 1004.7 |
| 20260505113230 | 22 | 233 | 1.6 | 6.4 | 0.00 | 0.00 | 0.00 | 82 | 1004.9 |
| 20260505113223 | 22 | 274 | 1.6 | 3.2 | 0.00 | 0.00 | 0.00 | 82 | 1004.6 |
| 20260505112720 | 22 | 211 | 1.6 | 3.2 | 0.00 | 0.00 | 0.00 | 82 | 1004.6 |
| 20260505112236 | 22 | 327 | 3.2 | 6.4 | 0.00 | 0.00 | 0.00 | 83 | 1004.9 |
| 20260505112218 | 22 | 250 | 3.2 | 3.2 | 0.00 | 0.00 | 0.00 | 82 | 1004.6 |
| 20260505111717 | 22 | 329 | 1.6 | 3.2 | 0.00 | 0.00 | 0.00 | 83 | 1004.7 |
| 20260505111214 | 22 | 191 | 3.2 | 3.2 | 0.00 | 0.00 | 0.00 | 84 | 1004.3 |
| 20260505111158 | 22 | 280 | 1.6 | 4.8 | 0.00 | 0.00 | 0.00 | 84 | 1004.7 |
| 20260505110709 | 22 | 321 | 1.6 | 1.6 | 0.00 | 0.00 | 0.00 | 84 | 1004.4 |
| 20260505110207 | 22 | 37 | 3.2 | 3.2 | 0.00 | 0.00 | 0.00 | 84 | 1004.5 |
| 20260505110120 | 22 | 321 | 1.6 | 6.4 | 0.00 | 0.00 | 0.00 | 84 | 1004.7 |
| 20260505102200 | 22 | 138 | 1.6 | 3.2 | 0.00 | 0.00 | 0.00 | 83 | 1004.8 |
| 20260505102142 | 22 | 256 | 1.6 | 3.2 | 0.00 | 0.00 | 0.00 | 83 | 1004.4 |
| 20260505101641 | 22 | 99 | 1.6 | 1.6 | 0.00 | 0.00 | 0.00 | 83 | 1004.6 |
| 20260505101226 | 22 | 227 | 3.2 | 6.4 | 0.00 | 0.00 | 0.00 | 83 | 1004.8 |
| 20260505101137 | 22 | 302 | 0.0 | 1.6 | 0.00 | 0.00 | 0.00 | 83 | 1004.5 |
| 20260505100633 | 22 | 218 | 4.8 | 6.4 | 0.00 | 0.00 | 0.00 | 83 | 1004.4 |
| 20260505100148 | 22 | 242 | 1.6 | 6.4 | 0.00 | 0.00 | 0.00 | 83 | 1004.8 |
| 20260505100130 | 22 | 2 | 3.2 | 4.8 | 0.00 | 0.00 | 0.00 | 83 | 1004.6 |
| 20260505095626 | 22 | 342 | 0.0 | 0.0 | 0.00 | 0.00 | 0.00 | 83 | 1004.5 |
| 20260505095123 | 22 | 242 | 3.2 | 3.2 | 0.00 | 0.00 | 0.00 | 83 | 1004.5 |
| 20260505095111 | 22 | 331 | 3.2 | 6.4 | 0.00 | 0.00 | 0.00 | 83 | 1004.9 |
| 20260505094620 | 22 | 336 | 3.2 | 6.4 | 0.00 | 0.00 | 0.00 | 83 | 1004.6 |
| 20260505094240 | 22 | 344 | 1.6 | 4.8 | 0.00 | 0.00 | 0.00 | 84 | 1005.1 |
| 20260505094116 | 22 | 197 | 0.0 | 1.6 | 0.00 | 0.00 | 0.00 | 84 | 1004.8 |
| 20260505093612 | 22 | 332 | 1.6 | 1.6 | 0.00 | 0.00 | 0.00 | 84 | 1004.6 |
| 20260505093202 | 22 | 306 | 1.6 | 6.4 | 0.00 | 0.00 | 0.00 | 84 | 1005.2 |
| 20260505093110 | 22 | 251 | 0.0 | 1.6 | 0.00 | 0.00 | 0.00 | 84 | 1004.8 |
| 20260505092607 | 22 | 333 | 0.0 | 1.6 | 0.00 | 0.00 | 0.00 | 84 | 1004.8 |
| 20260505092228 | 22 | 249 | 1.6 | 4.8 | 0.00 | 0.00 | 0.00 | 84 | 1005.3 |
| 20260505092106 | 22 | 158 | 3.2 | 4.8 | 0.00 | 0.00 | 0.00 | 84 | 1005.0 |
| 20260505091602 | 22 | 28 | 3.2 | 3.2 | 0.00 | 0.00 | 0.00 | 84 | 1005.0 |
| 20260505091150 | 22 | 318 | 1.6 | 4.8 | 0.00 | 0.00 | 0.00 | 84 | 1005.4 |
| 20260505091100 | 22 | 265 | 0.0 | 0.0 | 0.00 | 0.00 | 0.00 | 84 | 1005.2 |
| 20260505090558 | 21 | 270 | 1.6 | 1.6 | 0.00 | 0.00 | 0.00 | 84 | 1005.0 |
| 20260505090215 | 21 | 303 | 3.2 | 9.7 | 0.00 | 0.00 | 0.00 | 84 | 1005.3 |
| 20260505090056 | 21 | 357 | 1.6 | 1.6 | 0.00 | 0.00 | 0.00 | 84 | 1005.0 |
| 20260505085553 | 21 | 265 | 3.2 | 3.2 | 0.00 | 0.00 | 0.00 | 84 | 1004.9 |
| 20260505085137 | 21 | 334 | 1.6 | 4.8 | 0.00 | 0.00 | 0.00 | 84 | 1005.1 |
| 20260505085051 | 21 | 36 | 3.2 | 4.8 | 0.00 | 0.00 | 0.00 | 84 | 1004.8 |
| 20260505084549 | 21 | 69 | 1.6 | 1.6 | 0.00 | 0.00 | 0.00 | 84 | 1004.9 |
| 20260505084202 | 21 | 315 | 1.6 | 3.2 | 0.00 | 0.00 | 0.00 | 84 | 1005.2 |
| 20260505084047 | 21 | 343 | 0.0 | 0.0 | 0.00 | 0.00 | 0.00 | 85 | 1004.9 |
| 20260505083544 | 21 | 308 | 0.0 | 1.6 | 0.00 | 0.00 | 0.00 | 84 | 1005.0 |
| 20260505083228 | 21 | 221 | 1.6 | 4.8 | 0.00 | 0.00 | 0.00 | 84 | 1005.2 |
| 20260505083040 | 21 | 243 | 1.6 | 3.2 | 0.00 | 0.00 | 0.00 | 84 | 1004.8 |
| 20260505082536 | 21 | 344 | 1.6 | 1.6 | 0.00 | 0.00 | 0.00 | 84 | 1005.0 |
| 20260505082151 | 21 | 239 | 1.6 | 6.4 | 0.00 | 0.00 | 0.00 | 84 | 1005.4 |
| 20260505082033 | 21 | 195 | 1.6 | 3.2 | 0.00 | 0.00 | 0.00 | 84 | 1005.2 |
| 20260505081529 | 21 | 217 | 1.6 | 3.2 | 0.00 | 0.00 | 0.00 | 83 | 1005.0 |
| 20260505081216 | 22 | 105 | 1.6 | 3.2 | 0.00 | 0.00 | 0.00 | 83 | 1005.3 |
| 20260505081027 | 22 | 104 | 3.2 | 3.2 | 0.00 | 0.00 | 0.00 | 83 | 1004.9 |
| 20260505080523 | 22 | 50 | 1.6 | 1.6 | 0.00 | 0.00 | 0.00 | 83 | 1004.9 |
| 20260505080239 | 22 | 222 | 1.6 | 6.4 | 0.00 | 0.00 | 0.00 | 83 | 1005.5 |
| 20260505080020 | 22 | 267 | 1.6 | 1.6 | 0.00 | 0.00 | 0.00 | 83 | 1005.1 |
| 20260505075515 | 22 | 308 | 1.6 | 1.6 | 0.00 | 0.00 | 0.00 | 83 | 1005.2 |
| 20260505075204 | 22 | 340 | 1.6 | 6.4 | 0.00 | 0.00 | 0.00 | 82 | 1005.6 |
| 20260505075013 | 22 | 335 | 0.0 | 0.0 | 0.00 | 0.00 | 0.00 | 82 | 1005.3 |
| 20260505074510 | 22 | 339 | 3.2 | 3.2 | 0.00 | 0.00 | 0.00 | 82 | 1005.3 |
| 20260505074230 | 22 | 302 | 1.6 | 4.8 | 0.00 | 0.00 | 0.00 | 82 | 1005.7 |
| 20260505074007 | 22 | 233 | 1.6 | 3.2 | 0.00 | 0.00 | 0.00 | 82 | 1005.3 |
| 20260505073504 | 22 | 348 | 0.0 | 0.0 | 0.00 | 0.00 | 0.00 | 82 | 1005.6 |
| 20260505073151 | 22 | 106 | 1.6 | 4.8 | 0.00 | 0.00 | 0.00 | 81 | 1005.9 |
| 20260505073002 | 22 | 348 | 1.6 | 1.6 | 0.00 | 0.00 | 0.00 | 81 | 1005.7 |
| 20260505072458 | 22 | 283 | 3.2 | 4.8 | 0.00 | 0.00 | 0.00 | 81 | 1005.8 |
| 20260505072217 | 22 | 113 | 1.6 | 4.8 | 0.00 | 0.00 | 0.00 | 81 | 1006.2 |
| 20260505071954 | 22 | 82 | 1.6 | 1.6 | 0.00 | 0.00 | 0.00 | 81 | 1005.9 |
| 20260505071450 | 22 | 301 | 0.0 | 1.6 | 0.00 | 0.00 | 0.00 | 80 | 1006.0 |
| 20260505071200 | 22 | 240 | 1.6 | 3.2 | 0.00 | 0.00 | 0.00 | 80 | 1006.2 |
| 20260505070948 | 22 | 308 | 0.0 | 1.6 | 0.00 | 0.00 | 0.00 | 80 | 1005.9 |
| 20260505070444 | 22 | 8 | 0.0 | 0.0 | 0.00 | 0.00 | 0.00 | 80 | 1006.0 |
| 20260505070205 | 22 | 201 | 3.2 | 4.8 | 0.00 | 0.00 | 0.00 | 79 | 1006.3 |
| 20260505065940 | 22 | 232 | 1.6 | 3.2 | 0.00 | 0.00 | 0.00 | 79 | 1006.0 |
| 20260505065437 | 22 | 302 | 1.6 | 1.6 | 0.00 | 0.00 | 0.00 | 79 | 1006.0 |
| 20260505065127 | 22 | 215 | 3.2 | 4.8 | 0.00 | 0.00 | 0.00 | 79 | 1006.5 |
| 20260505064933 | 22 | 342 | 1.6 | 3.2 | 0.00 | 0.00 | 0.00 | 79 | 1006.1 |
| 20260505064431 | 22 | 301 | 0.0 | 1.6 | 0.00 | 0.00 | 0.00 | 78 | 1006.1 |
| 20260505064256 | 22 | 150 | 1.6 | 3.2 | 0.00 | 0.00 | 0.00 | 78 | 1006.5 |
| 20260505063929 | 22 | 345 | 0.0 | 0.0 | 0.00 | 0.00 | 0.00 | 78 | 1006.3 |
| 20260505063425 | 22 | 64 | 1.6 | 3.2 | 0.00 | 0.00 | 0.00 | 78 | 1006.3 |
| 20260505063218 | 22 | 254 | 0.0 | 3.2 | 0.00 | 0.00 | 0.00 | 77 | 1006.6 |
| 20260505062922 | 22 | 294 | 0.0 | 0.0 | 0.00 | 0.00 | 0.00 | 77 | 1006.3 |
| 20260505062419 | 22 | 220 | 8.0 | 9.7 | 0.00 | 0.00 | 0.00 | 77 | 1006.2 |
| 20260505062201 | 22 | 251 | 1.6 | 3.2 | 0.00 | 0.00 | 0.00 | 77 | 1006.6 |
| 20260505061915 | 22 | 201 | 0.0 | 1.6 | 0.00 | 0.00 | 0.00 | 77 | 1006.4 |
| 20260505061414 | 22 | 211 | 3.2 | 3.2 | 0.00 | 0.00 | 0.00 | 77 | 1006.4 |
| 20260505061205 | 22 | 348 | 3.2 | 4.8 | 0.00 | 0.00 | 0.00 | 77 | 1006.6 |
| 20260505060911 | 22 | 238 | 3.2 | 4.8 | 0.00 | 0.00 | 0.00 | 77 | 1006.4 |
| 20260505060408 | 22 | 90 | 6.4 | 11.3 | 0.00 | 0.00 | 0.00 | 76 | 1006.0 |
| 20260505060128 | 22 | 313 | 1.6 | 9.7 | 0.00 | 0.00 | 0.00 | 76 | 1006.5 |
| 20260505055904 | 22 | 251 | 3.2 | 4.8 | 0.00 | 0.00 | 0.00 | 76 | 1006.3 |
| 20260505055400 | 22 | 348 | 1.6 | 1.6 | 0.00 | 0.00 | 0.00 | 76 | 1006.3 |
| 20260505055214 | 23 | 263 | 3.2 | 6.4 | 0.00 | 0.00 | 0.00 | 75 | 1006.7 |
| 20260505054857 | 23 | 264 | 1.6 | 3.2 | 0.00 | 0.00 | 0.00 | 75 | 1006.3 |
| 20260505054354 | 23 | 345 | 0.0 | 1.6 | 0.00 | 0.00 | 0.00 | 75 | 1006.4 |
| 20260505054220 | 23 | 338 | 1.6 | 3.2 | 0.00 | 0.00 | 0.00 | 75 | 1006.7 |
| 20260505053853 | 23 | 129 | 3.2 | 3.2 | 0.00 | 0.00 | 0.00 | 75 | 1006.5 |
| 20260505053350 | 23 | 189 | 3.2 | 4.8 | 0.00 | 0.00 | 0.00 | 74 | 1006.5 |
| 20260505053245 | 23 | 218 | 1.6 | 6.4 | 0.00 | 0.00 | 0.00 | 74 | 1006.9 |
| 20260505052846 | 23 | 104 | 1.6 | 3.2 | 0.00 | 0.00 | 0.00 | 74 | 1006.6 |
| 20260505052343 | 23 | 313 | 1.6 | 3.2 | 0.00 | 0.00 | 0.00 | 74 | 1006.6 |
| 20260505052208 | 23 | 38 | 1.6 | 3.2 | 0.00 | 0.00 | 0.00 | 74 | 1007.2 |
| 20260505051840 | 23 | 253 | 1.6 | 1.6 | 0.00 | 0.00 | 0.00 | 74 | 1006.8 |
| 20260505051337 | 23 | 258 | 1.6 | 1.6 | 0.00 | 0.00 | 0.00 | 74 | 1006.8 |
| 20260505051234 | 23 | 298 | 3.2 | 4.8 | 0.00 | 0.00 | 0.00 | 73 | 1007.1 |
| 20260505050835 | 23 | 65 | 0.0 | 0.0 | 0.00 | 0.00 | 0.00 | 73 | 1006.7 |
| 20260505050334 | 23 | 348 | 1.6 | 1.6 | 0.00 | 0.00 | 0.00 | 73 | 1006.8 |
| 20260505050156 | 23 | 344 | 1.6 | 4.8 | 0.00 | 0.00 | 0.00 | 73 | 1007.1 |
| 20260505041758 | 23 | 265 | 1.6 | 1.6 | 0.00 | 0.00 | 0.00 | 71 | 1006.8 |
| 20260505041255 | 23 | 275 | 3.2 | 4.8 | 0.00 | 0.00 | 0.00 | 71 | 1007.1 |
| 20260505041158 | 23 | 257 | 3.2 | 4.8 | 0.00 | 0.00 | 0.00 | 71 | 1007.3 |
| 20260505040753 | 23 | 202 | 1.6 | 1.6 | 0.00 | 0.00 | 0.00 | 71 | 1006.9 |
| 20260505040250 | 23 | 198 | 3.2 | 3.2 | 0.00 | 0.00 | 0.00 | 71 | 1007.1 |
| 20260505040223 | 23 | 317 | 1.6 | 9.7 | 0.00 | 0.00 | 0.00 | 71 | 1007.3 |
| 20260505035747 | 23 | 221 | 3.2 | 4.8 | 0.00 | 0.00 | 0.00 | 71 | 1006.9 |
| 20260505035242 | 23 | 264 | 3.2 | 4.8 | 0.00 | 0.00 | 0.00 | 70 | 1006.9 |
| 20260505035146 | 23 | 324 | 1.6 | 1.6 | 0.00 | 0.00 | 0.00 | 70 | 1007.1 |
| 20260505034740 | 23 | 313 | 0.0 | 1.6 | 0.00 | 0.00 | 0.00 | 70 | 1006.9 |
| 20260505034237 | 23 | 80 | 3.2 | 3.2 | 0.00 | 0.00 | 0.00 | 70 | 1006.7 |
| 20260505034108 | 23 | 239 | 1.6 | 3.2 | 0.00 | 0.00 | 0.00 | 70 | 1007.1 |
| 20260505033733 | 23 | 243 | 3.2 | 3.2 | 0.00 | 0.00 | 0.00 | 70 | 1006.8 |
| 20260505033237 | 23 | 131 | 1.6 | 9.7 | 0.00 | 0.00 | 0.00 | 69 | 1007.3 |
| 20260505033231 | 23 | 227 | 3.2 | 3.2 | 0.00 | 0.00 | 0.00 | 69 | 1007.0 |
| 20260505032729 | 23 | 106 | 3.2 | 3.2 | 0.00 | 0.00 | 0.00 | 69 | 1007.0 |
| 20260505032224 | 23 | 210 | 3.2 | 4.8 | 0.00 | 0.00 | 0.00 | 69 | 1006.9 |
| 20260505032159 | 23 | 305 | 1.6 | 4.8 | 0.00 | 0.00 | 0.00 | 69 | 1007.3 |
| 20260505031722 | 23 | 338 | 0.0 | 1.6 | 0.00 | 0.00 | 0.00 | 69 | 1007.0 |
| 20260505031225 | 23 | 337 | 1.6 | 3.2 | 0.00 | 0.00 | 0.00 | 69 | 1007.4 |
| 20260505031218 | 23 | 318 | 1.6 | 1.6 | 0.00 | 0.00 | 0.00 | 69 | 1007.0 |
| 20260505030715 | 23 | 345 | 1.6 | 3.2 | 0.00 | 0.00 | 0.00 | 69 | 1007.0 |
| 20260505030211 | 23 | 216 | 1.6 | 3.2 | 0.00 | 0.00 | 0.00 | 69 | 1007.2 |
| 20260505030146 | 23 | 215 | 1.6 | 11.3 | 0.00 | 0.00 | 0.00 | 69 | 1007.4 |
| 20260505025707 | 23 | 327 | 0.0 | 1.6 | 0.00 | 0.00 | 0.00 | 69 | 1007.1 |
| 20260505025233 | 24 | 245 | 3.2 | 4.8 | 0.00 | 0.00 | 0.00 | 68 | 1007.3 |
| 20260505025206 | 24 | 267 | 1.6 | 3.2 | 0.00 | 0.00 | 0.00 | 69 | 1007.3 |
| 20260505024704 | 24 | 338 | 3.2 | 3.2 | 0.00 | 0.00 | 0.00 | 68 | 1006.9 |
| 20260505024200 | 24 | 218 | 3.2 | 3.2 | 0.00 | 0.00 | 0.00 | 68 | 1007.2 |
| 20260505024135 | 24 | 70 | 1.6 | 4.8 | 0.00 | 0.00 | 0.00 | 68 | 1007.5 |
| 20260505023658 | 24 | 238 | 1.6 | 3.2 | 0.00 | 0.00 | 0.00 | 68 | 1007.1 |
| 20260505023200 | 24 | 280 | 1.6 | 3.2 | 0.00 | 0.00 | 0.00 | 68 | 1007.4 |
| 20260505023155 | 24 | 7 | 1.6 | 1.6 | 0.00 | 0.00 | 0.00 | 68 | 1007.0 |
| 20260505022652 | 24 | 276 | 1.6 | 3.2 | 0.00 | 0.00 | 0.00 | 68 | 1007.0 |
| 20260505022225 | 24 | 237 | 1.6 | 3.2 | 0.00 | 0.00 | 0.00 | 68 | 1007.5 |
| 20260505022149 | 24 | 36 | 0.0 | 1.6 | 0.00 | 0.00 | 0.00 | 68 | 1007.2 |
| 20260505021646 | 24 | 229 | 0.0 | 1.6 | 0.00 | 0.00 | 0.00 | 67 | 1007.1 |
| 20260505021148 | 24 | 303 | 1.6 | 3.2 | 0.00 | 0.00 | 0.00 | 67 | 1007.4 |
| 20260505021142 | 24 | 320 | 0.0 | 1.6 | 0.00 | 0.00 | 0.00 | 67 | 1007.2 |
| 20260505020638 | 24 | 356 | 1.6 | 3.2 | 0.00 | 0.00 | 0.00 | 67 | 1006.9 |
| 20260505020214 | 24 | 192 | 1.6 | 6.4 | 0.00 | 0.00 | 0.00 | 67 | 1007.4 |
| 20260505020134 | 24 | 356 | 0.0 | 1.6 | 0.00 | 0.00 | 0.00 | 67 | 1007.0 |
| 20260505015631 | 24 | 348 | 1.6 | 1.6 | 0.00 | 0.00 | 0.00 | 66 | 1007.1 |
| 20260505015136 | 25 | 26 | 1.6 | 3.2 | 0.00 | 0.00 | 0.00 | 66 | 1007.5 |
| 20260505015128 | 25 | 353 | 0.0 | 0.0 | 0.00 | 0.00 | 0.00 | 66 | 1007.1 |
| 20260505014625 | 25 | 14 | 1.6 | 1.6 | 0.00 | 0.00 | 0.00 | 66 | 1007.2 |